TimeMST,TemperatureF,Dew PointF,Humidity,Sea Level PressureIn,VisibilityMPH,Wind Direction,Wind SpeedMPH,Gust SpeedMPH,PrecipitationIn,Events,Conditions,WindDirDegrees,DateUTC
12:15 AM,30.2,19.4,64,29.95,10.0,NNW,8.1,-,N/A,,Clear,330,2013-02-22 07:15:00
12:35 AM,30.2,19.4,64,29.95,10.0,NNW,5.8,-,N/A,,Scattered Clouds,330,2013-02-22 07:35:00
12:55 AM,30.2,19.4,64,29.94,10.0,NNW,10.4,-,N/A,,Partly Cloudy,330,2013-02-22 07:55:00
1:15 AM,32.0,19.4,60,29.93,10.0,NNW,17.3,-,N/A,,Clear,330,2013-02-22 08:15:00
1:35 AM,30.2,19.4,64,29.92,10.0,NNW,18.4,-,N/A,,Clear,330,2013-02-22 08:35:00
1:55 AM,30.2,19.4,64,29.92,10.0,NW,13.8,-,N/A,,Clear,320,2013-02-22 08:55:00
2:15 AM,32.0,15.8,51,29.91,10.0,NNW,17.3,21.9,N/A,,Clear,340,2013-02-22 09:15:00
2:35 AM,32.0,15.8,51,29.91,10.0,NNW,13.8,19.6,N/A,,Clear,330,2013-02-22 09:35:00
2:55 AM,32.0,15.8,51,29.91,10.0,NNW,12.7,-,N/A,,Clear,330,2013-02-22 09:55:00
3:15 AM,32.0,15.8,51,29.92,10.0,NW,13.8,18.4,N/A,,Clear,320,2013-02-22 10:15:00
3:35 AM,32.0,15.8,51,29.92,10.0,WNW,10.4,-,N/A,,Clear,300,2013-02-22 10:35:00
3:55 AM,32.0,15.8,51,29.92,10.0,WNW,6.9,-,N/A,,Clear,300,2013-02-22 10:55:00
4:15 AM,32.0,15.8,51,29.92,10.0,West,3.5,-,N/A,,Clear,280,2013-02-22 11:15:00
4:35 AM,30.2,15.8,55,29.93,10.0,West,6.9,-,N/A,,Partly Cloudy,280,2013-02-22 11:35:00
4:55 AM,28.4,15.8,59,29.95,10.0,WNW,9.2,-,N/A,,Clear,290,2013-02-22 11:55:00
5:15 AM,28.4,17.6,64,29.96,10.0,West,4.6,-,N/A,,Clear,260,2013-02-22 12:15:00
5:55 AM,28.4,17.6,64,29.97,10.0,West,4.6,-,N/A,,Clear,280,2013-02-22 12:55:00
6:15 AM,24.8,17.6,74,29.97,10.0,North,3.5,-,N/A,,Clear,10,2013-02-22 13:15:00
6:55 AM,23.0,17.6,80,29.99,10.0,WNW,11.5,-,N/A,,Clear,300,2013-02-22 13:55:00
7:15 AM,24.8,17.6,74,29.99,10.0,WNW,10.4,-,N/A,,Clear,300,2013-02-22 14:15:00
7:35 AM,26.6,19.4,74,30.01,10.0,NW,8.1,-,N/A,,Clear,320,2013-02-22 14:35:00
7:55 AM,30.2,19.4,64,30.02,10.0,NNW,8.1,-,N/A,,Clear,330,2013-02-22 14:55:00
8:15 AM,32.0,19.4,60,30.03,10.0,WNW,6.9,-,N/A,,Clear,300,2013-02-22 15:15:00
8:35 AM,33.8,19.4,56,30.04,10.0,WNW,9.2,-,N/A,,Clear,290,2013-02-22 15:35:00
8:55 AM,35.6,17.6,48,30.04,10.0,WNW,12.7,-,N/A,,Clear,290,2013-02-22 15:55:00
9:15 AM,37.4,17.6,45,30.04,10.0,WNW,15.0,-,N/A,,Clear,300,2013-02-22 16:15:00
9:35 AM,37.4,15.8,41,30.04,10.0,WNW,13.8,-,N/A,,Clear,290,2013-02-22 16:35:00
9:55 AM,37.4,15.8,41,30.05,10.0,WNW,13.8,21.9,N/A,,Clear,290,2013-02-22 16:55:00
10:15 AM,39.2,14.0,36,30.05,10.0,WNW,17.3,21.9,N/A,,Clear,290,2013-02-22 17:15:00
10:35 AM,39.2,15.8,39,30.05,10.0,WNW,15.0,20.7,N/A,,Clear,290,2013-02-22 17:35:00
10:55 AM,41.0,15.8,36,30.05,10.0,NW,16.1,19.6,N/A,,Clear,310,2013-02-22 17:55:00
11:15 AM,41.0,15.8,36,30.05,10.0,WNW,13.8,21.9,N/A,,Clear,300,2013-02-22 18:15:00
11:55 AM,44.6,15.8,31,30.03,10.0,West,15.0,23.0,N/A,,Partly Cloudy,270,2013-02-22 18:55:00
12:15 PM,44.6,15.8,31,30.02,10.0,WNW,15.0,23.0,N/A,,Clear,290,2013-02-22 19:15:00
12:35 PM,44.6,15.8,31,30.01,10.0,WNW,24.2,29.9,N/A,,Clear,290,2013-02-22 19:35:00
12:55 PM,44.6,15.8,31,30.00,10.0,WNW,17.3,27.6,N/A,,Clear,300,2013-02-22 19:55:00
1:15 PM,44.6,15.8,31,29.99,10.0,WNW,19.6,26.5,N/A,,Clear,300,2013-02-22 20:15:00
1:35 PM,44.6,17.6,34,29.99,10.0,WNW,20.7,27.6,N/A,,Clear,290,2013-02-22 20:35:00
1:55 PM,44.6,17.6,34,29.99,10.0,WNW,17.3,27.6,N/A,,Clear,300,2013-02-22 20:55:00
2:15 PM,44.6,17.6,34,29.99,10.0,West,21.9,31.1,N/A,,Partly Cloudy,280,2013-02-22 21:15:00
2:35 PM,46.4,17.6,32,29.99,10.0,WNW,25.3,32.2,N/A,,Scattered Clouds,290,2013-02-22 21:35:00
2:55 PM,44.6,15.8,31,29.99,10.0,NW,24.2,27.6,N/A,,Partly Cloudy,310,2013-02-22 21:55:00
3:35 PM,46.4,14.0,27,29.98,10.0,WNW,29.9,36.8,N/A,,Clear,290,2013-02-22 22:35:00
4:15 PM,44.6,15.8,31,29.98,10.0,WNW,28.8,34.5,N/A,,Clear,290,2013-02-22 23:15:00
4:35 PM,44.6,15.8,31,29.97,10.0,WNW,26.5,33.4,N/A,,Clear,290,2013-02-22 23:35:00
4:55 PM,42.8,17.6,36,29.97,10.0,WNW,26.5,29.9,N/A,,Clear,290,2013-02-22 23:55:00
5:15 PM,42.8,17.6,36,29.98,10.0,West,24.2,32.2,N/A,,Clear,280,2013-02-23 00:15:00